Other Public Products
Issued by NWS Charleston, SC

Current Version | Previous Version | Graphics & Text | Print | Product List | Glossary On
Versions: 1 2 3 4 5 6 7 8 9 10 11 12 13 14 15 16 17 18 19 20 21 22 23 24 25 26 27 28 29 30 31 32 33 34 35 36 37 38 39 40 41 42 43 44 45 46 47 48 49 50
318 FPUS82 KCHS 180612 OPUCHS TEST...KCHS/KSAV Gateway Observations...TEST National Weather Service Charleston SC 100 AM EST SAT NOV 18 2017 NOTE: "fair" indicates few or no clouds below 12,000 feet with no significant weather and/or obstructions to visibility. SCZ050-WAZ558-NCZ071-TXZ119-213-PAZ071-DCZ001-FLZ074-172-MI076- NYZ176-178-MAZ016-IL014-TNZ027-NJZ106-GAZ044-MD014-180700- ...Gateway Observations for Charleston International... CITY SKY/WX TMP DP RH WIND PRES REMARKS Chas Airport CLEAR 46 44 93 CALM 30.12F 6HR MIN TEMP: 43; 6HR MAX TEMP: 52; Seattle MOCLDY 45 38 76 S10 30.29R 6HR MIN TEMP: 44; 6HR MAX TEMP: 47; Charlotte MOCLDY 44 35 70 S5 30.12S 6HR MIN TEMP: 42; 6HR MAX TEMP: 55; Dallas DFW CLOUDY 75 64 68 S21 29.68F 6HR MIN TEMP: 75; 6HR MAX TEMP: 81; Dallas Love MOCLDY 76 63 64 SW16G28 29.70F 6HR MIN TEMP: 74; 6HR MAX TEMP: 80; Philladelphia MOCLDY 39 30 70 W3 30.07F 6HR MIN TEMP: 37; 6HR MAX TEMP: 47; Wash National MOCLDY 40 36 86 S5 30.08F WCI 37 6HR MIN TEMP: 40; 6HR MAX TEMP: 47; Baltimore CLOUDY 33 30 88 CALM 30.06F 6HR MIN TEMP: 32; 6HR MAX TEMP: 39; Miami PTCLDY 71 59 65 N5 30.02F 6HR MIN TEMP: 71; 6HR MAX TEMP: 75; Detroit HVY RAIN 41 39 93 S13 29.70F FOG 6HR MIN TEMP: 41; 6HR MAX TEMP: 44; 6HR PCP: 0.26; Newark CLOUDY 36 18 48 W5 30.05F WCI 32 6HR MIN TEMP: 35; 6HR MAX TEMP: 43; Laguardia PTCLDY 40 17 39 NW9 30.04F WCI 34 6HR MIN TEMP: 40; 6HR MAX TEMP: 45; J F K PTCLDY 38 17 42 NW8 30.06F WCI 32 6HR MIN TEMP: 37; 6HR MAX TEMP: 43; Boston Logan CLEAR 33 15 47 W8 29.99 WCI 26 6HR MIN TEMP: 33; 6HR MAX TEMP: 39; Ft. Lauderdale PTCLDY 69 61 75 N5 30.01F 6HR MIN TEMP: 69; 6HR MAX TEMP: 74; Chicago O`Hare CLOUDY 48 45 89 SW8 29.55F FOG 6HR MIN TEMP: 42; 6HR MAX TEMP: 48; 6HR PCP: 0.11; Chicago Midway DRIZZLE 48 47 96 SW9 29.56F FOG 6HR MIN TEMP: 43; 6HR MAX TEMP: 48; 6HR PCP: 0.16; Houston Bush PTCLDY 72 69 90 S10 29.88F 6HR MIN TEMP: 72; 6HR MAX TEMP: 79; Houston Hobby PTCLDY 70 69 97 S9 29.88F 6HR MIN TEMP: 70; 6HR MAX TEMP: 76; Nashville MOCLDY 59 37 44 S13 29.90R 6HR MIN TEMP: 59; 6HR MAX TEMP: 62; Atlanta MOCLDY 48 44 86 SE5 30.05F 6HR MIN TEMP: 48; 6HR MAX TEMP: 58; $$ GAZ044-118-TXZ119-213-NCZ071-DCZ001-MDZ014-506-PAZ021-071-NJZ106- NYZ176-178-MAZ106-OHZ011-021-055-MIZ076-KYZ091-ILZ014-INZ047- MNZ060-ONZ431-180700- ...Gateway Observations for Savannah International... CITY SKY/WX TMP DP RH WIND PRES REMARKS Savannah Arpt MOCLDY 53 50 89 E6 30.10F 6HR MIN TEMP: 48; 6HR MAX TEMP: 56; Atlanta MOCLDY 48 44 86 SE5 30.05F 6HR MIN TEMP: 48; 6HR MAX TEMP: 58; Charlotte MOCLDY 44 35 70 S5 30.12S 6HR MIN TEMP: 42; 6HR MAX TEMP: 55; Dallas DFW CLOUDY 75 64 68 S21 29.68F 6HR MIN TEMP: 75; 6HR MAX TEMP: 81; Houston Bush PTCLDY 72 69 90 S10 29.88F 6HR MIN TEMP: 72; 6HR MAX TEMP: 79; Wash National MOCLDY 40 36 86 S5 30.08F WCI 37 6HR MIN TEMP: 40; 6HR MAX TEMP: 47; Wash Dulles PTCLDY 33 29 85 S6 30.06F WCI 28 6HR MIN TEMP: 29; 6HR MAX TEMP: 37; Baltimore CLOUDY 33 30 88 CALM 30.06F 6HR MIN TEMP: 32; 6HR MAX TEMP: 39; Philadelphia MOCLDY 39 30 70 W3 30.07F 6HR MIN TEMP: 37; 6HR MAX TEMP: 47; Newark CLOUDY 36 18 48 W5 30.05F WCI 32 6HR MIN TEMP: 35; 6HR MAX TEMP: 43; Laguardia PTCLDY 40 17 39 NW9 30.04F WCI 34 6HR MIN TEMP: 40; 6HR MAX TEMP: 45; J F K PTCLDY 38 17 42 NW8 30.06F WCI 32 6HR MIN TEMP: 37; 6HR MAX TEMP: 43; Boston CLEAR 33 15 47 W8 29.99 WCI 26 6HR MIN TEMP: 33; 6HR MAX TEMP: 39; Pittsburg CLOUDY 34 28 79 SE7 29.84F WCI 28 6HR MIN TEMP: 31; 6HR MAX TEMP: 38; Akron CLOUDY 41 28 60 S10 29.78F 6HR MIN TEMP: 38; 6HR MAX TEMP: 41; Cleveland CLOUDY 47 27 45 S16G24 29.76F 6HR MIN TEMP: 42; 6HR MAX TEMP: 47; Cincinnati CLOUDY 52 39 61 S14 29.74F 6HR MIN TEMP: 43; 6HR MAX TEMP: 54; 6HR PCP: TRACE; Columbus CLOUDY 46 31 55 S13 29.75F Detroit HVY RAIN 41 39 93 S13 29.70F FOG 6HR MIN TEMP: 41; 6HR MAX TEMP: 44; 6HR PCP: 0.26; Chicago O`Hare CLOUDY 48 45 89 SW8 29.55F FOG 6HR MIN TEMP: 42; 6HR MAX TEMP: 48; 6HR PCP: 0.11; Minneapolis CLOUDY 36 35 96 N8 29.69R WCI 30 6HR MIN TEMP: 36; 6HR MAX TEMP: 39; Indianapolis CLOUDY 51 43 74 S9 29.66F 6HR MIN TEMP: 45; 6HR MAX TEMP: 51; 6HR PCP: 0.04; Toronto Canada MOCLDY 37 32 81 SE9 29.78F WCI 31 $$

USA.gov is the U.S. government's official web portal to all federal, state and local government web resources and services.